When you browse on this site, cookies collect data to enhance your experience and personalize the content and advertising you see.
Visit our Privacy Policy to learn more. By continuing to use the site, you agree to this use of cookies and data.
  • In Österreich
  • Länderverzeichnis
  • Für 7 Tage
  • Wassertemperatur
  • Wetterkarte
  • News
  • Widgets
  • user-avatar
    Anmelden

    Stündliche Wetter Susa

    Heute, 21 November, Donnerstag

    Zeit Temperatur Niederschläge Wind Luftdruck Luftfeuchtigkeit
    00:00 +9°C° 0 mm 0 m/S 557 mmHg 96%
    01:00 +9°C° 0 mm 0 m/S 557 mmHg 95%
    02:00 +9°C° 0 mm 0 m/S 557 mmHg 95%
    03:00 +9°C° 0 mm 1 m/S 556 mmHg 94%
    04:00 +9°C° 0 mm 1 m/S 556 mmHg 94%
    05:00 +9°C° 0 mm 0 m/S 557 mmHg 92%
    06:00 +10°C° 0 mm 0 m/S 558 mmHg 90%
    07:00 +10°C° 0 mm 0 m/S 558 mmHg 88%
    08:00 +13°C° 0 mm 0 m/S 560 mmHg 80%
    09:00 +16°C° 0 mm 1 m/S 561 mmHg 72%
    10:00 +20°C° 0 mm 1 m/S 562 mmHg 64%
    11:00 +19°C° 0.4 mm 1 m/S 561 mmHg 69%
    12:00 +19°C° 0.4 mm 1 m/S 560 mmHg 74%
    13:00 +18°C° 0.4 mm 1 m/S 559 mmHg 79%
    14:00 +16°C° 1.1 mm 1 m/S 559 mmHg 83%
    15:00 +16°C° 1.1 mm 1 m/S 558 mmHg 87%
    16:00 +15°C° 1.1 mm 1 m/S 557 mmHg 91%
    17:00 +14°C° 0.5 mm 1 m/S 557 mmHg 93%
    18:00 +13°C° 0.5 mm 1 m/S 557 mmHg 95%
    19:00 +11°C° 0.5 mm 0 m/S 557 mmHg 97%
    20:00 +10°C° 0.2 mm 0 m/S 557 mmHg 96%
    21:00 +10°C° 0.2 mm 0 m/S 557 mmHg 95%
    22:00 +10°C° 0.2 mm 1 m/S 557 mmHg 95%
    23:00 +10°C° 0 mm 1 m/S 557 mmHg 94%

    Morgen, 22 November, Freitag

    Zeit Temperatur Niederschläge Wind Luftdruck Luftfeuchtigkeit
    00:00 +10°C° 0 mm 1 m/S 557 mmHg 94%
    01:00 +10°C° 0 mm 1 m/S 556 mmHg 94%
    02:00 +10°C° 0 mm 1 m/S 556 mmHg 93%
    03:00 +9°C° 0 mm 1 m/S 556 mmHg 93%
    04:00 +9°C° 0 mm 1 m/S 555 mmHg 93%
    05:00 +9°C° 0 mm 0 m/S 556 mmHg 91%
    06:00 +10°C° 0 mm 0 m/S 557 mmHg 89%
    07:00 +11°C° 0 mm 0 m/S 558 mmHg 87%
    08:00 +13°C° 0 mm 0 m/S 559 mmHg 80%
    09:00 +16°C° 0 mm 1 m/S 561 mmHg 73%
    10:00 +20°C° 0 mm 1 m/S 562 mmHg 66%
    11:00 +19°C° 0.8 mm 1 m/S 561 mmHg 71%
    12:00 +19°C° 0.8 mm 1 m/S 560 mmHg 77%
    13:00 +18°C° 0.8 mm 1 m/S 559 mmHg 83%
    14:00 +16°C° 1.3 mm 1 m/S 558 mmHg 86%
    15:00 +16°C° 1.3 mm 1 m/S 557 mmHg 90%
    16:00 +15°C° 1.3 mm 1 m/S 557 mmHg 93%
    17:00 +14°C° 0.5 mm 1 m/S 556 mmHg 95%
    18:00 +13°C° 0.5 mm 1 m/S 556 mmHg 96%
    19:00 +12°C° 0.5 mm 1 m/S 556 mmHg 97%
    20:00 +12°C° 0.1 mm 1 m/S 557 mmHg 96%
    21:00 +11°C° 0.1 mm 1 m/S 557 mmHg 95%
    22:00 +10°C° 0.1 mm 0 m/S 557 mmHg 95%
    23:00 +10°C° 0.1 mm 0 m/S 557 mmHg 95%

    übermorgen, 23 November, Samstag

    Zeit Temperatur Niederschläge Wind Luftdruck Luftfeuchtigkeit
    00:00 +10°C° 0.1 mm 0 m/S 557 mmHg 94%
    01:00 +10°C° 0.1 mm 0 m/S 556 mmHg 94%
    02:00 +9°C° 0.1 mm 0 m/S 556 mmHg 94%
    03:00 +9°C° 0.1 mm 0 m/S 556 mmHg 94%
    04:00 +9°C° 0.1 mm 0 m/S 556 mmHg 95%
    05:00 +9°C° 0 mm 0 m/S 556 mmHg 94%
    06:00 +10°C° 0 mm 0 m/S 557 mmHg 92%
    07:00 +11°C° 0 mm 0 m/S 558 mmHg 91%
    08:00 +14°C° 0 mm 1 m/S 559 mmHg 83%
    09:00 +16°C° 0 mm 1 m/S 560 mmHg 74%
    10:00 +19°C° 0 mm 1 m/S 562 mmHg 66%
    11:00 +19°C° 0.6 mm 1 m/S 561 mmHg 72%
    12:00 +18°C° 0.6 mm 1 m/S 560 mmHg 79%
    13:00 +16°C° 0.6 mm 1 m/S 559 mmHg 86%
    14:00 +16°C° 1 mm 1 m/S 558 mmHg 88%
    15:00 +15°C° 1 mm 1 m/S 557 mmHg 91%
    16:00 +15°C° 1 mm 1 m/S 557 mmHg 94%
    17:00 +14°C° 0.5 mm 1 m/S 557 mmHg 95%
    18:00 +13°C° 0.5 mm 1 m/S 557 mmHg 96%
    19:00 +11°C° 0.5 mm 0 m/S 557 mmHg 98%
    20:00 +11°C° 0.8 mm 0 m/S 557 mmHg 97%
    21:00 +12°C° 0.8 mm 1 m/S 558 mmHg 96%
    22:00 +12°C° 0.8 mm 1 m/S 558 mmHg 96%
    23:00 +11°C° 0.4 mm 0 m/S 558 mmHg 95%

    24 November, Sonntag

    Zeit Temperatur Niederschläge Wind Luftdruck Luftfeuchtigkeit
    00:00 +11°C° 0.4 mm 0 m/S 557 mmHg 95%
    01:00 +11°C° 0.4 mm 0 m/S 557 mmHg 95%
    02:00 +10°C° 0 mm 0 m/S 557 mmHg 95%
    03:00 +10°C° 0 mm 0 m/S 556 mmHg 95%
    04:00 +9°C° 0 mm 0 m/S 556 mmHg 95%
    05:00 +10°C° 0 mm 0 m/S 557 mmHg 94%
    06:00 +11°C° 0 mm 0 m/S 557 mmHg 93%
    07:00 +11°C° 0 mm 0 m/S 558 mmHg 92%
    08:00 +13°C° 0.1 mm 0 m/S 559 mmHg 85%
    09:00 +16°C° 0.1 mm 1 m/S 560 mmHg 77%
    10:00 +19°C° 0.1 mm 1 m/S 561 mmHg 70%
    11:00 +19°C° 0.7 mm 1 m/S 560 mmHg 75%
    12:00 +19°C° 0.7 mm 1 m/S 559 mmHg 80%
    13:00 +18°C° 0.7 mm 1 m/S 558 mmHg 85%
    14:00 +18°C° 1.1 mm 1 m/S 558 mmHg 87%
    15:00 +16°C° 1.1 mm 1 m/S 557 mmHg 89%
    16:00 +15°C° 1.1 mm 1 m/S 557 mmHg 91%
    17:00 +14°C° 0.7 mm 0 m/S 557 mmHg 93%
    18:00 +13°C° 0.7 mm 0 m/S 557 mmHg 95%
    19:00 +12°C° 0.7 mm 0 m/S 557 mmHg 97%
    20:00 +12°C° 0.5 mm 0 m/S 557 mmHg 97%
    21:00 +12°C° 0.5 mm 1 m/S 558 mmHg 97%
    22:00 +12°C° 0.5 mm 1 m/S 558 mmHg 97%
    23:00 +12°C° 0.1 mm 1 m/S 558 mmHg 96%

    25 November, Montag

    Zeit Temperatur Niederschläge Wind Luftdruck Luftfeuchtigkeit
    00:00 +11°C° 0.1 mm 0 m/S 557 mmHg 96%
    01:00 +11°C° 0.1 mm 0 m/S 557 mmHg 96%
    02:00 +10°C° 0 mm 0 m/S 556 mmHg 96%
    03:00 +10°C° 0 mm 0 m/S 556 mmHg 95%
    04:00 +9°C° 0 mm 0 m/S 555 mmHg 95%
    05:00 +10°C° 0 mm 0 m/S 556 mmHg 94%
    06:00 +10°C° 0 mm 0 m/S 557 mmHg 93%
    07:00 +11°C° 0 mm 0 m/S 557 mmHg 91%
    08:00 +14°C° 0 mm 1 m/S 559 mmHg 82%
    09:00 +18°C° 0 mm 1 m/S 560 mmHg 73%
    10:00 +20°C° 0 mm 1 m/S 561 mmHg 64%
    11:00 +20°C° 0.3 mm 1 m/S 560 mmHg 67%
    12:00 +20°C° 0.3 mm 1 m/S 559 mmHg 70%
    13:00 +20°C° 0.3 mm 1 m/S 558 mmHg 73%
    14:00 +19°C° 0.7 mm 1 m/S 558 mmHg 78%
    15:00 +18°C° 0.7 mm 1 m/S 557 mmHg 83%
    16:00 +16°C° 0.7 mm 1 m/S 556 mmHg 89%
    17:00 +15°C° 0.7 mm 1 m/S 556 mmHg 92%
    18:00 +14°C° 0.7 mm 1 m/S 556 mmHg 94%
    19:00 +13°C° 0.7 mm 1 m/S 556 mmHg 97%
    20:00 +13°C° 0.4 mm 1 m/S 556 mmHg 97%
    21:00 +12°C° 0.4 mm 1 m/S 556 mmHg 97%
    22:00 +12°C° 0.4 mm 1 m/S 557 mmHg 97%
    23:00 +12°C° 0.1 mm 1 m/S 556 mmHg 96%

    26 November, Dienstag

    Zeit Temperatur Niederschläge Wind Luftdruck Luftfeuchtigkeit
    00:00 +11°C° 0.1 mm 1 m/S 556 mmHg 96%
    01:00 +11°C° 0.1 mm 1 m/S 555 mmHg 96%
    02:00 +10°C° 0 mm 1 m/S 555 mmHg 96%
    03:00 +10°C° 0 mm 1 m/S 555 mmHg 95%
    04:00 +10°C° 0 mm 1 m/S 555 mmHg 95%
    05:00 +11°C° 0 mm 1 m/S 555 mmHg 94%
    06:00 +12°C° 0 mm 1 m/S 556 mmHg 93%
    07:00 +12°C° 0 mm 1 m/S 557 mmHg 92%
    08:00 +14°C° 0.1 mm 1 m/S 558 mmHg 85%
    09:00 +16°C° 0.1 mm 1 m/S 559 mmHg 78%
    10:00 +19°C° 0.1 mm 1 m/S 560 mmHg 71%
    11:00 +19°C° 1 mm 1 m/S 560 mmHg 75%
    12:00 +19°C° 1 mm 1 m/S 559 mmHg 79%
    13:00 +19°C° 1 mm 1 m/S 558 mmHg 82%
    14:00 +19°C° 1.1 mm 1 m/S 557 mmHg 85%
    15:00 +18°C° 1.1 mm 1 m/S 557 mmHg 87%
    16:00 +16°C° 1.1 mm 1 m/S 556 mmHg 89%
    17:00 +15°C° 0.7 mm 1 m/S 556 mmHg 91%
    18:00 +14°C° 0.7 mm 1 m/S 556 mmHg 94%
    19:00 +13°C° 0.7 mm 1 m/S 556 mmHg 96%
    20:00 +12°C° 0.2 mm 1 m/S 556 mmHg 96%
    21:00 +12°C° 0.2 mm 1 m/S 556 mmHg 96%
    22:00 +12°C° 0.2 mm 1 m/S 556 mmHg 96%
    23:00 +11°C° 0 mm 1 m/S 556 mmHg 96%
    Mehr zeigen